sat.trackr.live / text

‹ back to catalog

STARLINK-31930

NORAD 60596 · 2024-150P

PAYLOAD ACTIVE UNKNOWN

§ Identity

Operator
Country
US
Launch date
2024-08-20
Launch site
AFETR
Launch vehicle
Mass (kg)
RCS (m²)

Purposes: comms

External: N2YO · Heavens-Above · Gunter

§ Orbital elements

Epoch: 2026-09-21T20:23:33.908928Z

Period
93.85 min
Inclination
53.1589°
Eccentricity
0.0001240
Mean motion
15.34388221 rev/d
Perigee alt
461.9 km
Apogee alt
463.6 km
Semi-major
6,840.9 km
B*
1.5150e-5
RAAN
111.6745°
Arg perigee
91.1641°
Mean anomaly
268.9503°
Rev number
11,805

§ Raw data

STARLINK-319301 60596U 24150P   26264.84969802  .00000136  00000+0  15150-4 0  99992 60596  53.1589 111.6745 0001240  91.1641 268.9503 15.34388221118058

JSON: /api/v1/satellites/60596 · /tle

For live sub-satellite position, see the globe view (requires WebGL).

§ Visibility from observer

Set your observer location to see the next 7 days of passes ≥ 10°. The values pass through the URL so the page stays shareable.

No JS? Fill the form by hand. The geolocation button needs JavaScript.